Location: Newark
(35.9031°N, 139.7175°E)
Time: 07:31:48
(UTC+00:00)

Vanguard 1 - All Passes

Search period start: 26 May 2020 00:00
Search period end: 05 June 2020 00:00
Orbit: 649 x 3834 km, 34.3° (Epoch: 23 May)

Date Brightness Start Highest point End Pass type
(mag) Time Alt. Az. Time Alt. Az. Time Alt. Az.
26 May - 02:04:27 10° W 02:27:41 73° SSW 02:42:34 10° ESE daylight
26 May - 04:33:50 10° WNW 04:50:19 35° SW 05:00:44 10° SSE daylight
26 May - 17:05:07 10° SE 17:08:13 11° ESE 17:11:32 10° ESE visible
26 May - 19:13:45 10° SSW 19:29:10 43° SE 19:50:04 10° ENE daylight
26 May - 21:33:54 10° WSW 21:54:22 76° SSE 22:17:15 10° E daylight
26 May - 23:58:39 10° W 00:22:25 85° S 00:41:43 10° E daylight
27 May - 02:26:12 10° WNW 02:48:49 65° SSW 03:03:13 10° SE daylight
27 May - 04:56:27 10° W 05:10:33 27° SW 05:20:05 10° S daylight
27 May - 17:19:32 10° SSE 17:28:19 17° SE 17:39:22 10° E visible
27 May - 19:33:46 10° SW 19:49:53 52° SE 20:12:00 10° ENE daylight
27 May - 21:54:58 10° WSW 22:15:56 81° SSE 22:38:43 10° E daylight
28 May - 00:20:14 10° W 00:44:07 83° S 01:02:53 10° ESE daylight
28 May - 02:48:00 10° WNW 03:09:45 56° SW 03:23:41 10° SE daylight
28 May - 05:19:53 10° W 05:30:39 19° SW 05:38:39 10° SSW daylight
28 May - 17:37:33 10° S 17:48:27 25° SE 18:03:23 10° E visible
28 May - 19:54:06 10° SW 20:10:48 61° SSE 20:33:46 10° ENE daylight
28 May - 22:16:11 10° WSW 22:37:37 84° S 23:00:10 10° E daylight
29 May - 00:41:51 10° W 01:05:42 79° SSW 01:23:56 10° ESE daylight
29 May - 03:09:55 10° WNW 03:30:27 47° SW 03:43:52 10° SSE daylight
29 May - 05:45:33 10° WSW 05:50:41 12° WSW 05:55:08 10° SW daylight
29 May - 17:56:35 10° S 18:08:42 33° SE 18:26:18 10° E visible
29 May - 20:14:41 10° SW 20:31:55 69° SSE 20:55:25 10° ENE daylight
29 May - 22:37:30 10° W 22:59:23 86° S 23:21:35 10° E daylight
30 May - 01:03:27 10° W 01:27:08 73° SSW 01:44:50 10° ESE daylight
30 May - 03:32:04 10° WNW 03:50:58 38° SW 04:03:43 10° SSE daylight
30 May - 18:16:11 10° SSW 18:29:06 41° SE 18:48:39 10° ENE visible
30 May - 20:35:29 10° WSW 20:53:15 76° SSE 21:17:03 10° E daylight
30 May - 22:58:54 10° W 23:21:09 85° S 23:42:58 10° E daylight
31 May - 01:25:05 10° WNW 01:48:24 66° SSW 02:05:33 10° SE daylight
31 May - 03:54:36 10° W 04:11:18 29° SW 04:23:06 10° S daylight
31 May - 16:22:58 10° SSE 16:29:15 15° ESE 16:37:03 10° E visible
31 May - 18:36:10 10° SW 18:49:41 51° SE 19:10:41 10° ENE visible
31 May - 20:56:26 10° WSW 21:14:46 81° SSE 21:38:40 10° E daylight
31 May - 23:20:19 10° W 23:42:53 83° S 00:04:15 10° ESE daylight
01 Jun - 01:46:47 10° WNW 02:09:27 57° SSW 02:26:02 10° SE daylight
01 Jun - 04:17:52 10° W 04:31:30 22° SW 04:41:48 10° S daylight
01 Jun - 16:40:39 10° S 16:49:18 22° SE 17:01:27 10° E visible
01 Jun - 18:56:28 10° SW 19:10:29 60° SSE 19:32:33 10° ENE visible
01 Jun - 21:17:32 10° WSW 21:36:23 84° S 22:00:16 10° E daylight
01 Jun - 23:41:46 10° W 00:04:32 79° SSW 00:25:25 10° ESE daylight
02 Jun - 02:08:35 10° WNW 02:30:17 49° SW 02:46:15 10° SSE daylight
02 Jun - 04:42:42 10° W 04:51:37 15° WSW 04:59:03 10° SSW daylight
02 Jun - 16:59:36 10° S 17:09:26 30° SE 17:24:28 10° E visible
02 Jun - 19:17:01 10° SW 19:31:30 68° SSE 19:54:19 10° ENE daylight
02 Jun - 21:38:43 10° W 21:58:06 86° S 22:21:51 10° E daylight
03 Jun - 00:03:14 10° W 00:26:03 73° SSW 00:46:24 10° ESE daylight
03 Jun - 02:30:37 10° WNW 02:50:55 40° SW 03:06:06 10° SSE daylight
03 Jun - 17:19:10 10° SSW 17:29:44 39° SE 17:46:53 10° ENE visible
03 Jun - 19:37:45 10° WSW 19:52:43 75° SSE 20:16:04 10° E daylight
03 Jun - 21:59:58 10° W 22:19:50 85° S 22:43:22 10° E daylight
04 Jun - 00:24:42 10° WNW 00:47:23 66° SSW 01:07:11 10° SE daylight
04 Jun - 02:53:03 10° W 03:11:23 32° SW 03:25:32 10° S daylight
04 Jun - 15:27:38 10° SE 15:30:45 11° ESE 15:34:17 10° ESE visible
04 Jun - 17:39:08 10° SSW 17:50:13 48° SE 18:08:58 10° ENE visible
04 Jun - 19:58:37 10° WSW 20:14:06 81° SSE 20:37:49 10° E daylight
04 Jun - 22:21:14 10° W 22:41:34 83° S 23:04:48 10° ESE daylight
